[[{"header":{"parameterUnit":"m.s-1","parameterCategory":2,"la1":30.2991,"la2":30.254,"lo1":-89.0895,"lo2":-89.0444,"dy":0.0017,"dx":0.0017,"nx":28,"ny":28,"refTime":"2024-07-09T21:00:00:Z","depth":"0","parameterNumber":2,"parameterNumberName":"U-component_of_CURRENTS"},"data":[0,0,0,0,0,0,0,0,0,0,0,0,0,0,0,0,0,0,0,0,0,0,0,0,0,0,0,0,0,0,0,0,0,0,0,0,0,0,0,0,0,0,0,0,0,0,0,0,0,0,0,0,0,0,0,0,0,0,0.2798,0.2799,0,0.2943,0.2945,0.2947,0.3019,0.3019,0.3019,0.3019,0.3167,0.3171,0.3175,0,0,0,0,0,0,0,0,0,0,0,0,0,0.2529,0.2534,0.2797,0.2799,0.2801,0.2943,0.2945,0.2947,0.3019,0.3019,0.3019,0.3019,0.3165,0.317,0.3175,0,0,0,0,0,0,0,0,0,0,0,0,0,0.2658,0.2536,0.2797,0.2854,0.286,0.2943,0.2945,0.2948,0.3019,0.3019,0.3019,0.3019,0.3164,0.317,0.3176,0.3213,0,0,0.3194,0.3196,0,0,0,0,0,0,0,0,0.265,0.2668,0.2843,0.285,0.2857,0.2962,0.2905,0.3036,0.3019,0.2959,0.3019,0.3019,0.3098,0.311,0.3138,0.322,0.3227,0.3194,0.3198,0.32,0.3202,0,0,0,0,0,0,0,0.2642,0.2661,0.2856,0.2845,0.2854,0.2854,0.2872,0.293,0.3027,0.2964,0.297,0.2985,0.3102,0.3132,0.3142,0.3229,0.3194,0.3199,0.3203,0.3205,0.3328,0.3328,0,0,0,0,0,0,0.2627,0.2654,0.2851,0.286,0.2751,0.2859,0.288,0.2929,0.3027,0.3042,0.2985,0.2988,0.3122,0.3135,0.3147,0.3192,0.32,0.3206,0.3209,0.3328,0.3328,0.3327,0,0,0,0,0,0,0.2621,0.2644,0.2845,0.2757,0.2783,0.2864,0.2918,0.2932,0.2964,0.3043,0.3058,0.3003,0.3122,0.3139,0.3189,0.3198,0.3209,0.3214,0.3329,0.3328,0.3328,0.3285,0,0,0,0,0,0,0.2613,0.2642,0.2658,0.2758,0.2787,0.2888,0.2919,0.2935,0.2973,0.2979,0.3063,0.3077,0.3123,0.318,0.3195,0.3207,0.3219,0.3329,0.3328,0.3328,0.3287,0.3283,0.328,0,0,0,0,0,0.2604,0.2626,0.2659,0.2681,0.2813,0.2888,0.2903,0.2959,0.2974,0.2987,0.3037,0.3074,0.3187,0.3185,0.3203,0.3216,0.3329,0.3329,0.3328,0.3288,0.3284,0.328,0,0,0,0,0,0,0.2507,0.2639,0.2676,0.2736,0.2803,0.29,0.2913,0.2955,0.3008,0.3012,0.3079,0.3096,0.3149,0.318,0.3176,0.3246,0.3261,0.3264,0.3225,0.3221,0.3218,0.3222,0.3224,0,0,0,0,0,0.2496,0.2557,0.2666,0.2708,0.2742,0.2827,0.2859,0.2906,0.2971,0.2994,0.3054,0.3108,0.3161,0.3186,0.3243,0.328,0.3321,0.3296,0.3292,0.3289,0.3303,0.336,0.3363,0.3325,0.3325,0.3325,0,0,0.247,0.2546,0.258,0.269,0.2747,0.2806,0.2846,0.2901,0.2943,0.3002,0.3062,0.311,0.317,0.3218,0.3242,0.3242,0.3318,0.3288,0.3285,0.3301,0.3359,0.3363,0.3367,0.3325,0.3325,0.3325,0,0,0.2449,0.2516,0.2564,0.2622,0.2713,0.2774,0.2788,0.289,0.2925,0.2987,0.3039,0.3085,0.3165,0.3211,0.3242,0.3251,0.3307,0.3262,0.3245,0.3299,0.3303,0.3308,0.3352,0.3361,0.325,0.325,0.325,0,0.241,0.2495,0.2577,0.2632,0.2674,0.2759,0.2805,0.2859,0.2959,0.2984,0.2996,0.3117,0.3166,0.3227,0.3228,0.3247,0.3283,0.3256,0.3296,0.3301,0.3306,0.3351,0.3361,0.3247,0.3248,0.3248,0.3248,0,0.2437,0.2494,0.2518,0.263,0.2678,0.2727,0.2819,0.2864,0.2911,0.2966,0.3033,0.3099,0.3169,0.3183,0.3213,0.3269,0.3284,0.3294,0.3308,0.3308,0.3355,0.3366,0.3244,0.3245,0.3246,0.3246,0,0,0.2384,0.2517,0.2521,0.2568,0.2682,0.273,0.2788,0.287,0.2905,0.298,0.3025,0.3106,0.3142,0.3179,0.3222,0.3261,0.332,0.3286,0.329,0.3333,0.3439,0.3312,0.3312,0.3338,0.334,0.3342,0.3453,0,0.2381,0.247,0.2536,0.2603,0.2662,0.2739,0.2785,0.286,0.2919,0.2981,0.3043,0.3107,0.314,0.317,0.3219,0.3307,0.335,0.3289,0.3432,0.3437,0.3325,0.3321,0.3129,0.32,0.3465,0.3467,0.3468,0,0.2389,0.2454,0.2519,0.2614,0.2641,0.2682,0.2767,0.282,0.2912,0.2954,0.3023,0.3086,0.3172,0.3188,0.3338,0.3299,0.3371,0.3426,0.3431,0.3339,0.3329,0.3246,0.3211,0.3135,0.3486,0.3484,0.3483,0,0.2327,0.2435,0.2481,0.2517,0.2637,0.266,0.2715,0.2805,0.285,0.294,0.298,0.3088,0.3148,0.3257,0.3361,0.3368,0.3506,0.3531,0.3486,0.3479,0.3357,0.3333,0.3267,0.3636,0.3636,0.3635,0.3635,0,0.2308,0.2346,0.2455,0.2481,0.2533,0.2618,0.2666,0.273,0.2816,0.2864,0.2962,0.3018,0.3169,0.3261,0.3363,0.3438,0.3512,0.3488,0.3497,0.3331,0.3305,0.3267,0.3247,0.3639,0.3638,0.3638,0.3637,0,0.225,0.2315,0.2376,0.2477,0.2509,0.2542,0.2643,0.2676,0.276,0.2827,0.2856,0.2987,0.3099,0.3222,0.3389,0.3419,0.3407,0.3521,0.33,0.3279,0.3145,0.3129,0.3014,0.2943,0.3508,0.3505,0.3503,0,0.225,0.2273,0.2355,0.2379,0.2424,0.2492,0.2532,0.2636,0.2675,0.2803,0.2824,0.2944,0.2999,0.3162,0.3234,0.3349,0.3317,0.3234,0.3205,0.3098,0.3091,0.3013,0.2958,0.3042,0.3037,0.3032,0.3028,0,0.2254,0.2257,0.2292,0.2333,0.2372,0.2425,0.249,0.2523,0.2631,0.2677,0.2735,0.278,0.2897,0.2897,0.3005,0.3068,0.3034,0.3139,0.3098,0.2763,0.261,0.2556,0.3016,0.2986,0.2991,0.2994,0.2996,0.2998,0.2252,0.225,0.2271,0.2294,0.2327,0.2352,0.2348,0.2408,0.2452,0.2472,0.2588,0.2568,0.2604,0.2718,0.2749,0.2681,0.2771,0.2644,0.2654,0.2603,0.2441,0.2785,0.271,0.2713,0.2715,0.2717,0.2719,0,0.2263,0.2237,0.2247,0.2247,0.2224,0.2273,0.2304,0.2261,0.2244,0.229,0.229,0.2273,0.2235,0.229,0.2291,0.2222,0.2161,0.2177,0.2047,0.2039,0.2407,0.2291,0.2033,0.2033,0.2033,0.2033,0.2033,0.2034,0.2271,0.2241,0.221,0.2153,0.2134,0.2075,0.2061,0.2002,0.1996,0.1923,0.1883,0.1903,0.2012,0.2008,0.1931,0.188,0.1795,0.1656,0.1751,0.2025,0.207,0.2113,0.1999,0.1684,0.1684,0.1274,0.1271,0.1268]},{"header":{"parameterUnit":"m.s-1","parameterCategory":2,"la1":30.2991,"la2":30.254,"lo1":-89.0895,"lo2":-89.0444,"dy":0.0017,"dx":0.0017,"nx":28,"ny":28,"refTime":"2024-07-09T21:00:00:Z","depth":"0","parameterNumber":3,"parameterNumberName":"V-component_of_CURRENTS"},"data":[0,0,0,0,0,0,0,0,0,0,0,0,0,0,0,0,0,0,0,0,0,0,0,0,0,0,0,0,0,0,0,0,0,0,0,0,0,0,0,0,0,0,0,0,0,0,0,0,0,0,0,0,0,0,0,0,0,0,0.0043,0.004,0,-0.0179,-0.0182,-0.0185,-0.0307,-0.0307,-0.0307,-0.0308,-0.0459,-0.0462,-0.0466,0,0,0,0,0,0,0,0,0,0,0,0,0,0.0303,0.0299,0.0043,0.004,0.0037,-0.0179,-0.0182,-0.0185,-0.0307,-0.0307,-0.0307,-0.0308,-0.0457,-0.0462,-0.0466,0,0,0,0,0,0,0,0,0,0,0,0,0,0.0146,0.0298,0.0043,-0.0049,-0.006,-0.0178,-0.0182,-0.0186,-0.0307,-0.0307,-0.0308,-0.0308,-0.0456,-0.0461,-0.0467,-0.0493,0,0,-0.0484,-0.0487,0,0,0,0,0,0,0,0,0.0155,0.0137,-0.0033,-0.0043,-0.0055,-0.0216,-0.0146,-0.0285,-0.0307,-0.0213,-0.0308,-0.0308,-0.037,-0.0383,-0.0425,-0.05,-0.0507,-0.0485,-0.0488,-0.049,-0.0492,0,0,0,0,0,0,0,0.0167,0.0145,-0.0046,-0.0036,-0.0049,-0.01,-0.0122,-0.0174,-0.0285,-0.0221,-0.0231,-0.0255,-0.0376,-0.042,-0.0429,-0.0509,-0.0484,-0.0489,-0.0493,-0.0495,-0.0577,-0.0576,0,0,0,0,0,0,0.0198,0.0156,-0.0039,-0.0052,0.0052,-0.0103,-0.0129,-0.0164,-0.0287,-0.0307,-0.0254,-0.026,-0.041,-0.0423,-0.0435,-0.0436,-0.049,-0.0496,-0.0499,-0.0578,-0.0576,-0.0575,0,0,0,0,0,0,0.0204,0.0182,-0.003,0.0048,0.0018,-0.0107,-0.0146,-0.0168,-0.0207,-0.0312,-0.0331,-0.0269,-0.0411,-0.0427,-0.0472,-0.0444,-0.0498,-0.0503,-0.0579,-0.0577,-0.0576,-0.046,0,0,0,0,0,0,0.0212,0.0185,0.0181,0.005,0.0014,-0.0084,-0.0146,-0.0172,-0.0221,-0.023,-0.0331,-0.0347,-0.0412,-0.0463,-0.0477,-0.0452,-0.0508,-0.0581,-0.0578,-0.0576,-0.0466,-0.0455,-0.0446,0,0,0,0,0,0.0222,0.0217,0.0182,0.0159,0.0008,-0.0083,-0.0105,-0.0196,-0.0221,-0.0232,-0.0299,-0.0343,-0.0458,-0.0467,-0.0484,-0.046,-0.0582,-0.0579,-0.0577,-0.047,-0.0457,-0.0446,0,0,0,0,0,0,0.0317,0.02,0.0159,0.0115,0.0032,-0.0103,-0.0122,-0.0181,-0.0247,-0.0245,-0.034,-0.036,-0.0387,-0.0437,-0.0444,-0.0475,-0.0522,-0.0523,-0.0435,-0.0424,-0.0414,-0.0381,-0.0512,0,0,0,0,0,0.034,0.031,0.0188,0.0156,0.0122,0.0007,-0.0037,-0.0097,-0.0179,-0.021,-0.0281,-0.0342,-0.0391,-0.0417,-0.0471,-0.0492,-0.0505,-0.0483,-0.0472,-0.0464,-0.0448,-0.0439,-0.0426,-0.0566,-0.0566,-0.0566,0,0,0.0368,0.03,0.0282,0.0176,0.0106,0.006,-0.0021,-0.0076,-0.0105,-0.0211,-0.0253,-0.0312,-0.0389,-0.0417,-0.0431,-0.0453,-0.0429,-0.046,-0.0452,-0.0441,-0.0435,-0.0421,-0.0409,-0.0564,-0.0565,-0.0565,0,0,0.0403,0.035,0.0334,0.0277,0.0186,0.0117,0.0111,-0.0007,-0.0045,-0.0097,-0.0171,-0.0204,-0.0296,-0.0339,-0.0373,-0.0334,-0.0377,-0.0352,-0.0276,-0.0268,-0.0256,-0.0245,-0.0232,-0.0222,-0.0345,-0.0345,-0.0345,0,0.0437,0.039,0.0318,0.0287,0.0247,0.0153,0.0127,0.0077,-0.0036,-0.0056,-0.0087,-0.0191,-0.0253,-0.0277,-0.027,-0.0308,-0.0314,-0.0317,-0.0252,-0.0243,-0.0234,-0.0223,-0.0213,-0.0339,-0.0339,-0.034,-0.0341,0,0.0446,0.0417,0.0408,0.0339,0.0298,0.0262,0.0184,0.0157,0.0109,0.005,0.002,-0.0059,-0.012,-0.0138,-0.02,-0.0172,-0.0198,-0.024,-0.0278,-0.0212,-0.0206,-0.0197,-0.033,-0.0332,-0.0334,-0.0336,0,0,0.0485,0.0422,0.0419,0.0399,0.0322,0.0282,0.027,0.0211,0.0207,0.0144,0.0137,0.0068,0.0031,-0.0007,-0.0071,-0.0063,-0.001,-0.012,-0.0122,-0.0096,0.0018,-0.0017,-0.0012,-0.0042,-0.0041,-0.0039,0.0003,0,0.0501,0.0471,0.0435,0.0416,0.039,0.0333,0.0323,0.0279,0.024,0.0222,0.0179,0.0147,0.008,0.006,0.0062,-0.0004,0.0016,-0.0017,-0.0059,-0.006,-0.009,-0.0002,0.0005,0.0041,0.0011,0.0012,0.0013,0,0.0512,0.0488,0.0474,0.0443,0.0429,0.0418,0.0392,0.0371,0.0344,0.0321,0.0306,0.0257,0.025,0.0191,0.0164,0.0143,0.01,0.0063,0.0063,-0.0003,-0.0078,-0.0034,0.0057,-0.0041,0.0026,0.0025,0.0024,0,0.0556,0.0518,0.0512,0.0496,0.045,0.0452,0.0433,0.0405,0.0405,0.0394,0.0407,0.0374,0.0371,0.0325,0.0234,0.0205,0.0211,0.0156,0.0096,0.0092,0.0074,0.0066,0.0073,0.0167,0.0167,0.0167,0.0167,0,0.0576,0.0572,0.0537,0.053,0.0539,0.0498,0.0517,0.0495,0.0496,0.0531,0.047,0.0505,0.0406,0.038,0.0293,0.0228,0.026,0.0139,0.0112,0.0114,0.0109,-0.0002,-0.0057,0.0169,0.0168,0.0168,0.0168,0,0.0622,0.0593,0.0591,0.0564,0.0559,0.0571,0.0571,0.0588,0.0584,0.0638,0.0647,0.0619,0.0591,0.0484,0.0409,0.0311,0.0195,0.0206,0.0215,0.0188,0.0028,-0.0022,-0.0029,-0.006,0.0166,0.0165,0.0165,0,0.0636,0.064,0.0631,0.064,0.0631,0.064,0.065,0.0635,0.0669,0.0721,0.0764,0.0749,0.076,0.0627,0.0449,0.0312,0.021,0.021,0.0154,0.005,-0.0025,-0.0059,-0.0087,0.0183,0.0183,0.0183,0.0183,0,0.0671,0.0678,0.0681,0.0705,0.0719,0.0739,0.0764,0.0809,0.0826,0.0886,0.0975,0.0994,0.0856,0.0716,0.0486,0.0375,0.0151,0.0201,0.0102,0.0011,-0.003,-0.0085,0.012,0.0181,0.0182,0.0182,0.0182,0.0182,0.0711,0.0729,0.0744,0.0769,0.0795,0.0852,0.0893,0.095,0.1037,0.1138,0.1141,0.1177,0.0945,0.0638,0.046,0.0134,0.0148,0.0037,-0.0005,-0.0023,-0.0077,0.0124,0.0137,0.0137,0.0137,0.0137,0.0137,0,0.0749,0.0767,0.0799,0.0838,0.0888,0.0888,0.0973,0.1039,0.1173,0.1249,0.1322,0.1227,0.0942,0.0626,0.0197,-0.0031,-0.0104,-0.015,-0.019,-0.0203,-0.0011,-0.0039,-0.0073,-0.0072,-0.0072,-0.0072,-0.0072,-0.0072,0.0768,0.0805,0.0817,0.0906,0.0944,0.1021,0.1081,0.1197,0.1278,0.1384,0.1391,0.1384,0.116,0.0406,-0.0107,-0.0226,-0.0356,-0.0388,-0.0453,-0.0337,-0.0323,-0.031,-0.0348,-0.0447,-0.0447,-0.0616,-0.0618,-0.0619]}],[{"header":{"parameterUnit":"m.s-1","parameterCategory":2,"la1":30.2991,"la2":30.254,"lo1":-89.0895,"lo2":-89.0444,"dy":0.0017,"dx":0.0017,"nx":28,"ny":28,"refTime":"2024-07-09T21:00:00:Z","depth":"2","parameterNumber":2,"parameterNumberName":"U-component_of_CURRENTS"},"data":[0,0,0,0,0,0,0,0,0,0,0,0,0,0,0,0,0,0,0,0,0,0,0,0,0,0,0,0,0,0,0,0,0,0,0,0,0,0,0,0,0,0,0,0,0,0,0,0,0,0,0,0,0,0,0,0,0,0,0.2239,0.224,0,0.2194,0.2192,0.219,0.2057,0.2056,0.2055,0.2054,0.1914,0.1911,0.1908,0,0,0,0,0,0,0,0,0,0,0,0,0,0.2127,0.2129,0.2239,0.224,0.2241,0.2194,0.2192,0.2189,0.2057,0.2056,0.2055,0.2054,0.1915,0.1911,0.1908,0,0,0,0,0,0,0,0,0,0,0,0,0,0.2119,0.2129,0.2238,0.2185,0.2181,0.2195,0.2191,0.2188,0.2057,0.2056,0.2054,0.2053,0.1916,0.1912,0.1908,0.1912,0,0,0.1895,0.1893,0,0,0,0,0,0,0,0,0.212,0.2121,0.2191,0.2189,0.2185,0.2148,0.2102,0.2098,0.2058,0.2083,0.2054,0.2052,0.1998,0.1987,0.1954,0.1906,0.19,0.1894,0.1892,0.189,0.1889,0,0,0,0,0,0,0,0.2121,0.2122,0.22,0.2194,0.219,0.2137,0.2132,0.2099,0.2031,0.208,0.2076,0.2104,0.1992,0.1958,0.195,0.1898,0.1895,0.1891,0.1888,0.1887,0.1934,0.1938,0,0,0,0,0,0,0.2174,0.2123,0.2202,0.2201,0.2171,0.2142,0.2136,0.2144,0.2034,0.2022,0.2106,0.2099,0.1966,0.1955,0.1944,0.1998,0.189,0.1886,0.1884,0.193,0.1935,0.1939,0,0,0,0,0,0,0.2171,0.2181,0.2204,0.2178,0.218,0.2148,0.2157,0.2145,0.2148,0.2058,0.2039,0.2129,0.1964,0.195,0.1938,0.199,0.1884,0.1881,0.1926,0.1932,0.1937,0.2072,0,0,0,0,0,0,0.2168,0.2179,0.2204,0.2181,0.2184,0.2224,0.216,0.2146,0.2176,0.2166,0.2072,0.2054,0.1962,0.1945,0.1934,0.1982,0.1877,0.1921,0.1928,0.1935,0.2062,0.2081,0.2097,0,0,0,0,0,0.2163,0.218,0.2204,0.2216,0.2218,0.2228,0.2221,0.2179,0.218,0.2175,0.2126,0.2059,0.1983,0.1944,0.1931,0.1978,0.1918,0.1926,0.1935,0.2055,0.2078,0.2097,0,0,0,0,0,0,0.2088,0.2171,0.2195,0.2223,0.2248,0.2213,0.2201,0.2223,0.2182,0.217,0.209,0.2068,0.2071,0.203,0.199,0.2021,0.1948,0.1954,0.2045,0.2065,0.2082,0.2059,0.1874,0,0,0,0,0,0.2112,0.2173,0.2217,0.224,0.2249,0.2251,0.2258,0.2254,0.2228,0.2208,0.2167,0.2127,0.2094,0.2084,0.2031,0.2057,0.2039,0.209,0.2107,0.2122,0.21,0.2166,0.2186,0.1967,0.1967,0.1966,0,0,0.2081,0.2147,0.217,0.2237,0.2228,0.224,0.2241,0.2259,0.227,0.2203,0.2187,0.2175,0.2113,0.2112,0.2116,0.2087,0.2182,0.2133,0.2145,0.2114,0.2177,0.2198,0.2216,0.1972,0.1971,0.197,0,0,0.2079,0.211,0.2175,0.2196,0.226,0.2251,0.2287,0.2303,0.2295,0.232,0.2273,0.2308,0.226,0.2232,0.221,0.2311,0.2261,0.2322,0.2395,0.2462,0.248,0.2495,0.2516,0.2532,0.2344,0.2345,0.2345,0,0.2061,0.213,0.2183,0.2232,0.2241,0.2271,0.2295,0.2288,0.2312,0.2323,0.2325,0.2332,0.2305,0.2315,0.2353,0.2345,0.2363,0.2313,0.2483,0.2497,0.251,0.2528,0.2544,0.2352,0.2351,0.235,0.235,0,0.2087,0.2148,0.2157,0.224,0.2254,0.2266,0.2288,0.2312,0.2344,0.2361,0.2411,0.2409,0.2418,0.2452,0.2424,0.2522,0.2497,0.2486,0.2422,0.254,0.2552,0.2566,0.2363,0.236,0.2358,0.2356,0,0,0.204,0.217,0.2172,0.2218,0.2259,0.2268,0.2279,0.2308,0.2331,0.239,0.2438,0.2466,0.2518,0.2503,0.2526,0.2608,0.2746,0.2607,0.2608,0.2612,0.2877,0.2703,0.27,0.278,0.2783,0.2785,0.2852,0,0.2051,0.2147,0.2205,0.2244,0.2269,0.2288,0.2292,0.2323,0.2353,0.2399,0.2458,0.2497,0.2519,0.2573,0.2658,0.271,0.2787,0.2726,0.2772,0.2772,0.2591,0.2712,0.2489,0.2516,0.2865,0.2867,0.2869,0,0.2043,0.2129,0.2174,0.2272,0.2278,0.2304,0.2314,0.2341,0.2388,0.2422,0.2495,0.2527,0.264,0.2663,0.2808,0.2775,0.2836,0.2884,0.2888,0.2673,0.2623,0.2453,0.2527,0.2891,0.2889,0.2888,0.2886,0,0.1962,0.2093,0.213,0.2143,0.224,0.2274,0.2328,0.2358,0.2393,0.2463,0.2514,0.2601,0.2693,0.278,0.2875,0.2866,0.3026,0.3013,0.2901,0.2888,0.2671,0.2632,0.3121,0.3121,0.312,0.312,0.312,0,0.1927,0.1978,0.211,0.2124,0.2188,0.2261,0.2323,0.2367,0.2449,0.2478,0.2555,0.2588,0.2744,0.2833,0.2895,0.2928,0.3042,0.2911,0.2902,0.2712,0.2678,0.297,0.2951,0.3123,0.3122,0.3122,0.3121,0,0.1856,0.1919,0.1986,0.2107,0.2155,0.2201,0.2364,0.2397,0.2481,0.2531,0.2566,0.2644,0.2708,0.2819,0.2957,0.2945,0.2993,0.2978,0.2716,0.2672,0.28,0.2789,0.2841,0.2836,0.2831,0.2828,0.2824,0,0.185,0.1858,0.1962,0.1989,0.2069,0.2181,0.2242,0.2387,0.2425,0.2517,0.2522,0.2613,0.2583,0.2698,0.2694,0.273,0.2882,0.2571,0.2489,0.279,0.2777,0.2773,0.2767,0.228,0.2273,0.2267,0.2262,0,0.1843,0.184,0.1892,0.194,0.201,0.2092,0.2216,0.2253,0.2364,0.2396,0.237,0.2355,0.2395,0.2285,0.2355,0.2352,0.2532,0.2439,0.2875,0.2356,0.2258,0.2246,0.226,0.2208,0.2213,0.2217,0.222,0.2222,0.1829,0.184,0.1857,0.1898,0.195,0.197,0.1998,0.2071,0.2096,0.2092,0.2148,0.2068,0.209,0.1997,0.1961,0.1962,0.2121,0.2096,0.2117,0.2145,0.2038,0.1934,0.1803,0.1806,0.1808,0.181,0.1812,0,0.1805,0.1818,0.1835,0.1846,0.1827,0.1899,0.1933,0.1898,0.1844,0.1865,0.1821,0.165,0.1561,0.1619,0.1494,0.1488,0.1513,0.1476,0.1511,0.1564,0.1611,0.148,0.1096,0.1094,0.1092,0.1091,0,0,0.1799,0.1783,0.1777,0.172,0.1721,0.1674,0.1653,0.1578,0.1559,0.1457,0.1415,0.1492,0.1538,0.1301,0.1266,0.116,0.1363,0.1117,0.1687,0.1779,0.1824,0.1954,0.1808,0,0,0,0,0]},{"header":{"parameterUnit":"m.s-1","parameterCategory":2,"la1":30.2991,"la2":30.254,"lo1":-89.0895,"lo2":-89.0444,"dy":0.0017,"dx":0.0017,"nx":28,"ny":28,"refTime":"2024-07-09T21:00:00:Z","depth":"2","parameterNumber":3,"parameterNumberName":"V-component_of_CURRENTS"},"data":[0,0,0,0,0,0,0,0,0,0,0,0,0,0,0,0,0,0,0,0,0,0,0,0,0,0,0,0,0,0,0,0,0,0,0,0,0,0,0,0,0,0,0,0,0,0,0,0,0,0,0,0,0,0,0,0,0,0,0.0012,0.001,0,-0.015,-0.0152,-0.0153,-0.022,-0.022,-0.022,-0.022,-0.032,-0.0322,-0.0325,0,0,0,0,0,0,0,0,0,0,0,0,0,0.0262,0.0259,0.0012,0.001,0.0007,-0.015,-0.0152,-0.0153,-0.022,-0.022,-0.022,-0.022,-0.0319,-0.0322,-0.0325,0,0,0,0,0,0,0,0,0,0,0,0,0,0.0138,0.0257,0.0013,-0.0049,-0.0057,-0.015,-0.0152,-0.0154,-0.0219,-0.022,-0.022,-0.022,-0.0318,-0.0322,-0.0325,-0.0344,0,0,-0.0337,-0.0339,0,0,0,0,0,0,0,0,0.0145,0.0129,-0.0037,-0.0045,-0.0054,-0.017,-0.0101,-0.0216,-0.0219,-0.0152,-0.022,-0.022,-0.0267,-0.0275,-0.0298,-0.0349,-0.0353,-0.0337,-0.034,-0.0341,-0.0342,0,0,0,0,0,0,0,0.0154,0.0136,-0.0047,-0.004,-0.005,-0.007,-0.0087,-0.0123,-0.0201,-0.0158,-0.0164,-0.0191,-0.0271,-0.0294,-0.0301,-0.0355,-0.0337,-0.0341,-0.0343,-0.0344,-0.0464,-0.0465,0,0,0,0,0,0,0.0162,0.0144,-0.0042,-0.0052,0.0041,-0.0075,-0.0094,-0.0128,-0.0202,-0.0216,-0.0191,-0.0194,-0.0288,-0.0297,-0.0305,-0.034,-0.0341,-0.0345,-0.0347,-0.0463,-0.0464,-0.0465,0,0,0,0,0,0,0.0168,0.0147,-0.0035,0.0039,0.0013,-0.0079,-0.0117,-0.0131,-0.0166,-0.0229,-0.024,-0.0212,-0.0288,-0.0299,-0.0354,-0.0344,-0.0346,-0.035,-0.0462,-0.0463,-0.0465,-0.0405,0,0,0,0,0,0,0.0176,0.015,0.0142,0.0039,0.0009,-0.0087,-0.0118,-0.0134,-0.0184,-0.0189,-0.0251,-0.026,-0.0289,-0.0349,-0.0358,-0.0349,-0.0353,-0.0461,-0.0463,-0.0464,-0.0406,-0.0404,-0.0402,0,0,0,0,0,0.0185,0.0175,0.0143,0.012,-0.0004,-0.0088,-0.0103,-0.0165,-0.0185,-0.0197,-0.0251,-0.0259,-0.0366,-0.0353,-0.0364,-0.0355,-0.046,-0.0462,-0.0464,-0.0406,-0.0404,-0.0402,0,0,0,0,0,0,0.0274,0.0163,0.0126,0.0081,0.0002,-0.0101,-0.0116,-0.0167,-0.022,-0.0219,-0.0277,-0.029,-0.0334,-0.0362,-0.0346,-0.0399,-0.0411,-0.0416,-0.0364,-0.0362,-0.0361,-0.031,-0.0356,0,0,0,0,0,0.0289,0.0259,0.0142,0.0109,0.0072,-0.0022,-0.006,-0.0109,-0.0179,-0.0203,-0.0256,-0.0306,-0.035,-0.037,-0.0415,-0.0443,-0.0437,-0.0445,-0.0444,-0.0442,-0.0411,-0.0402,-0.0395,-0.0472,-0.0472,-0.0472,0,0,0.0315,0.025,0.0233,0.0128,0.0067,0.0013,-0.0044,-0.0101,-0.014,-0.0203,-0.0256,-0.0306,-0.0361,-0.0397,-0.0417,-0.0416,-0.0423,-0.0444,-0.0442,-0.0411,-0.0403,-0.0394,-0.0387,-0.0473,-0.0473,-0.0473,0,0,0.0347,0.0292,0.0272,0.021,0.0114,0.0052,0.0033,-0.0076,-0.0112,-0.0177,-0.0231,-0.027,-0.0351,-0.0378,-0.0403,-0.0419,-0.0421,-0.0445,-0.0384,-0.0376,-0.0368,-0.0361,-0.0356,-0.0348,-0.0435,-0.0435,-0.0435,0,0.0378,0.0326,0.0256,0.0212,0.0167,0.0069,0.0031,-0.0023,-0.0134,-0.0153,-0.0182,-0.0281,-0.0331,-0.0357,-0.0368,-0.0408,-0.0408,-0.0382,-0.0368,-0.0361,-0.0355,-0.0351,-0.0344,-0.0432,-0.0432,-0.0433,-0.0433,0,0.0378,0.0339,0.0323,0.0237,0.0189,0.0141,0.0047,0.001,-0.0045,-0.0103,-0.0147,-0.0215,-0.026,-0.0293,-0.0336,-0.0325,-0.0342,-0.037,-0.0359,-0.0342,-0.0341,-0.0335,-0.0428,-0.0429,-0.043,-0.0431,0,0,0.0424,0.0339,0.0333,0.0305,0.0196,0.0155,0.0113,0.0042,0.0031,-0.005,-0.0056,-0.0138,-0.0162,-0.0191,-0.0245,-0.0241,-0.0214,-0.0279,-0.028,-0.0248,-0.0193,-0.0225,-0.0221,-0.0238,-0.0236,-0.0235,-0.0213,0,0.0434,0.039,0.0336,0.0295,0.0258,0.0183,0.0153,0.0094,0.0044,0.0019,-0.0029,-0.0061,-0.0129,-0.0136,-0.0145,-0.0199,-0.0192,-0.0216,-0.0235,-0.0235,-0.0244,-0.0213,-0.0195,-0.0175,-0.0207,-0.0205,-0.0205,0,0.0437,0.0408,0.0383,0.0327,0.0306,0.0278,0.0238,0.0198,0.0152,0.0125,0.0103,0.0052,0.0038,-0.0016,-0.0055,-0.0068,-0.0114,-0.0152,-0.0153,-0.0188,-0.0254,-0.0198,-0.0162,-0.0194,-0.0195,-0.0195,-0.0196,0,0.0502,0.0436,0.0431,0.0403,0.0329,0.0327,0.0291,0.0242,0.0235,0.0211,0.0228,0.0174,0.0181,0.0117,0.0028,-0.0008,-0.0003,-0.0066,-0.0134,-0.0138,-0.0126,-0.0131,-0.0068,-0.0068,-0.0069,-0.0069,-0.0069,0,0.0519,0.0506,0.0469,0.0459,0.0461,0.0396,0.0406,0.0369,0.0357,0.0384,0.0304,0.0337,0.0221,0.0191,0.0087,0.0011,0.0045,-0.0097,-0.0123,-0.0111,-0.0114,-0.0136,-0.0144,-0.0068,-0.0068,-0.0068,-0.0068,0,0.0568,0.0541,0.0536,0.0499,0.049,0.05,0.0474,0.0487,0.0474,0.0523,0.0533,0.0485,0.0442,0.0316,0.0224,0.0108,0.0019,-0.0018,0.0002,-0.0022,-0.0139,-0.0145,-0.0092,-0.0093,-0.0094,-0.0094,-0.0094,0,0.0577,0.0587,0.0588,0.06,0.0582,0.0584,0.0588,0.0554,0.0585,0.0623,0.067,0.0641,0.0618,0.0458,0.0259,0.0084,0.0053,-0.0013,-0.0086,-0.0106,-0.0136,-0.0141,-0.0146,-0.0052,-0.0052,-0.0052,-0.0052,0,0.0598,0.0621,0.0626,0.0665,0.068,0.0702,0.0716,0.0762,0.0764,0.0807,0.0869,0.0854,0.0693,0.0513,0.0267,0.014,0.0005,-0.0022,-0.0011,-0.0061,-0.0069,-0.01,-0.0105,-0.0052,-0.0052,-0.0052,-0.0052,-0.0052,0.0626,0.0648,0.0682,0.0713,0.0748,0.082,0.0849,0.0894,0.096,0.1019,0.1008,0.097,0.0776,0.0434,0.0235,0.0008,-0.0001,-0.0089,-0.0087,-0.0086,-0.0098,-0.0108,-0.01,-0.01,-0.01,-0.01,-0.01,0,0.0644,0.0672,0.0712,0.0764,0.0819,0.0836,0.0926,0.0965,0.1054,0.1096,0.1108,0.0912,0.0707,0.0479,0.0139,-0.0064,-0.0085,-0.0121,-0.0096,-0.0095,-0.0093,-0.0105,-0.0109,-0.011,-0.011,-0.0111,0,0,0.0654,0.0693,0.0713,0.0803,0.0852,0.093,0.0991,0.1065,0.1109,0.114,0.1098,0.1026,0.0763,0.0522,0.0265,0.008,0.0034,0.0038,0.0066,0.0129,0.0132,-0.0053,-0.0067,0,0,0,0,0]}],[{"header":{"parameterUnit":"m.s-1","parameterCategory":2,"la1":30.2991,"la2":30.254,"lo1":-89.0895,"lo2":-89.0444,"dy":0.0017,"dx":0.0017,"nx":28,"ny":28,"refTime":"2024-07-09T21:00:00:Z","depth":"4","parameterNumber":2,"parameterNumberName":"U-component_of_CURRENTS"},"data":[0,0,0,0,0,0,0,0,0,0,0,0,0,0,0,0,0,0,0,0,0,0,0,0,0,0,0,0,0,0,0,0,0,0,0,0,0,0,0,0,0,0,0,0,0,0,0,0,0,0,0,0,0,0,0,0,0,0,0.0097,0.0096,0,0.0073,0.0073,0.0074,0.0103,0.0103,0.0104,0.0104,0.02,0.0202,0.0204,0,0,0,0,0,0,0,0,0,0,0,0,0,0.0413,0.0406,0.0097,0.0096,0.0095,0.0073,0.0073,0.0074,0.0103,0.0103,0.0104,0.0104,0.0199,0.0202,0.0204,0,0,0,0,0,0,0,0,0,0,0,0,0,0.0326,0.0404,0.0097,0.0103,0.0102,0.0073,0.0073,0.0074,0.0102,0.0103,0.0104,0.0105,0.0199,0.0202,0.0205,0.0209,0,0,0.0214,0.0216,0,0,0,0,0,0,0,0,0.0331,0.0315,0.0103,0.0102,0.0102,0.0086,0.022,0.0123,0.0102,0.0109,0.0104,0.0105,0.0169,0.0174,0.0175,0.0213,0.0217,0.0215,0.0216,0.0218,0.0219,0,0,0,0,0,0,0,0.0337,0.0318,0.0094,0.0102,0.0101,0.019,0.0177,0.0203,0.0142,0.0108,0.0109,0.0096,0.017,0.0172,0.0178,0.0219,0.0214,0.0217,0.0219,0.022,0.0395,0.0397,0,0,0,0,0,0,0.0312,0.0321,0.0095,0.0093,0.0214,0.0182,0.0168,0.0096,0.0139,0.0143,0.0096,0.0097,0.0166,0.0174,0.0181,0.0313,0.0218,0.0221,0.0222,0.0392,0.0395,0.0398,0,0,0,0,0,0,0.0318,0.0289,0.0095,0.0207,0.0187,0.0173,0.0094,0.0095,0.0119,0.0127,0.0135,0.0121,0.0167,0.0177,0.0223,0.0313,0.0222,0.0225,0.0389,0.0393,0.0397,0.0497,0,0,0,0,0,0,0.0326,0.029,0.0247,0.0202,0.018,0.0093,0.0092,0.0093,0.0105,0.0109,0.0151,0.0159,0.0168,0.0218,0.0226,0.0315,0.0227,0.0385,0.0391,0.0396,0.0491,0.0505,0.0516,0,0,0,0,0,0.0336,0.026,0.0243,0.0218,0.0111,0.0093,0.0092,0.0092,0.0106,0.0119,0.0147,0.0159,0.0259,0.0222,0.0231,0.0323,0.0383,0.0389,0.0395,0.0485,0.0502,0.0516,0,0,0,0,0,0,0.0415,0.0254,0.0235,0.0125,0.0121,0.0096,0.0095,0.0106,0.0136,0.0154,0.017,0.018,0.0267,0.0268,0.0227,0.0389,0.0333,0.0341,0.0398,0.0414,0.0427,0.0441,0.023,0,0,0,0,0,0.0398,0.0277,0.021,0.0141,0.0125,0.0122,0.0119,0.013,0.0139,0.0154,0.0192,0.024,0.0296,0.0328,0.037,0.0438,0.0414,0.051,0.0523,0.0534,0.0552,0.0552,0.0565,0.0419,0.0419,0.0419,0,0,0.0448,0.0314,0.0277,0.0149,0.014,0.0135,0.0124,0.0129,0.0178,0.0162,0.0251,0.0284,0.0321,0.0411,0.0452,0.0424,0.0567,0.0542,0.0551,0.0563,0.0559,0.0573,0.0586,0.0423,0.0422,0.0422,0,0,0.0446,0.0335,0.0245,0.0219,0.0164,0.0164,0.0171,0.0175,0.0228,0.0309,0.0319,0.0385,0.048,0.0513,0.0545,0.0647,0.0632,0.0689,0.0772,0.0771,0.0782,0.0792,0.0785,0.0794,0.0698,0.0698,0.0698,0,0.0504,0.0355,0.025,0.0173,0.0179,0.0179,0.019,0.0234,0.0279,0.0354,0.0362,0.0516,0.0535,0.0637,0.0684,0.068,0.0673,0.0708,0.0786,0.0795,0.0803,0.0794,0.0801,0.0704,0.0703,0.0703,0.0702,0,0.0459,0.036,0.0322,0.0203,0.0216,0.022,0.0259,0.0325,0.0407,0.0479,0.063,0.0653,0.0748,0.0778,0.0772,0.0863,0.0837,0.0796,0.074,0.0824,0.0809,0.0815,0.0712,0.071,0.0708,0.0707,0,0,0.0527,0.032,0.0317,0.0278,0.0236,0.0248,0.0344,0.0442,0.054,0.0647,0.0782,0.0888,0.0925,0.0959,0.0956,0.0963,0.1011,0.0922,0.0919,0.0906,0.1016,0.0933,0.0931,0.0985,0.0986,0.0988,0.0983,0,0.0538,0.0398,0.0319,0.0317,0.0279,0.032,0.0415,0.0528,0.065,0.0782,0.0877,0.0995,0.0989,0.1037,0.1055,0.1027,0.1033,0.1016,0.0947,0.0946,0.0852,0.0937,0.0993,0.0987,0.0989,0.099,0.099,0,0.054,0.0416,0.039,0.034,0.0347,0.0382,0.0541,0.0624,0.0808,0.0923,0.1057,0.1121,0.1204,0.1152,0.1174,0.1169,0.1115,0.1073,0.107,0.0963,0.0874,0.0887,0.1001,0.1,0.0999,0.0999,0.0998,0,0.0636,0.0495,0.0474,0.0457,0.0416,0.0477,0.0518,0.0692,0.0777,0.0997,0.1081,0.1219,0.1254,0.1255,0.1208,0.1203,0.1181,0.1147,0.1017,0.101,0.1037,0.1026,0.1133,0.1133,0.1133,0.1133,0.1133,0,0.0654,0.0631,0.0505,0.0489,0.0527,0.0522,0.063,0.074,0.0859,0.0973,0.1135,0.1206,0.1275,0.1279,0.1244,0.1162,0.1212,0.1056,0.1013,0.1081,0.1075,0.1041,0.103,0.1133,0.1133,0.1133,0.1133,0,0.0747,0.0661,0.0615,0.056,0.0553,0.0602,0.061,0.0691,0.0824,0.0956,0.1021,0.1179,0.1229,0.1248,0.1223,0.1167,0.1112,0.1045,0.1129,0.1087,0.094,0.0935,0.0952,0.0949,0.0947,0.0945,0.0943,0,0.0756,0.0734,0.0678,0.0662,0.0621,0.0632,0.066,0.0712,0.0773,0.0926,0.0991,0.1075,0.1177,0.1118,0.1118,0.1075,0.1023,0.0997,0.0984,0.0969,0.0926,0.0925,0.0923,0.0939,0.0939,0.0938,0.0937,0,0.0765,0.0783,0.0753,0.0725,0.0715,0.0675,0.0688,0.0696,0.0792,0.0875,0.0989,0.1031,0.106,0.1084,0.1037,0.0989,0.1044,0.0972,0.0976,0.0965,0.0954,0.0913,0.0915,0.0929,0.093,0.0931,0.0932,0,0.0807,0.0807,0.0794,0.077,0.0769,0.0734,0.0709,0.0725,0.0754,0.09,0.0911,0.1015,0.1076,0.103,0.0987,0.0955,0.0932,0.0899,0.0907,0.0915,0.0896,0.0877,0.0814,0,0,0,0,0,0.0804,0.08,0.0806,0.0765,0.078,0.0756,0.0751,0.0725,0.0762,0.0846,0.0875,0.0927,0.093,0.0944,0.0897,0.0902,0.0897,0.0837,0.0855,0.0884,0.0894,0.0869,0,0,0,0,0,0,0.0796,0.0815,0.0806,0.0777,0.0756,0.0733,0.0728,0.0735,0.0761,0.0829,0.084,0.0882,0.0886,0.0974,0.0896,0.0887,0.0877,0.0856,0.0853,0.0879,0.0887,0.0895,0.0873,0,0,0,0,0]},{"header":{"parameterUnit":"m.s-1","parameterCategory":2,"la1":30.2991,"la2":30.254,"lo1":-89.0895,"lo2":-89.0444,"dy":0.0017,"dx":0.0017,"nx":28,"ny":28,"refTime":"2024-07-09T21:00:00:Z","depth":"4","parameterNumber":3,"parameterNumberName":"V-component_of_CURRENTS"},"data":[0,0,0,0,0,0,0,0,0,0,0,0,0,0,0,0,0,0,0,0,0,0,0,0,0,0,0,0,0,0,0,0,0,0,0,0,0,0,0,0,0,0,0,0,0,0,0,0,0,0,0,0,0,0,0,0,0,0,0.0553,0.0553,0,0.0549,0.0549,0.0549,0.0597,0.0598,0.0599,0.06,0.0691,0.0692,0.0694,0,0,0,0,0,0,0,0,0,0,0,0,0,0.0476,0.0478,0.0553,0.0553,0.0552,0.0549,0.0549,0.055,0.0597,0.0598,0.0599,0.06,0.069,0.0692,0.0694,0,0,0,0,0,0,0,0,0,0,0,0,0,0.0499,0.0479,0.0553,0.0572,0.0573,0.0549,0.0549,0.055,0.0597,0.0598,0.0599,0.0601,0.0689,0.0692,0.0694,0.0684,0,0,0.0702,0.0703,0,0,0,0,0,0,0,0,0.0498,0.0503,0.0569,0.057,0.0572,0.057,0.0555,0.0597,0.0597,0.0593,0.06,0.0601,0.0655,0.066,0.0663,0.0688,0.0692,0.0702,0.0703,0.0704,0.0705,0,0,0,0,0,0,0,0.0497,0.0503,0.0557,0.0569,0.057,0.0536,0.0543,0.0562,0.0623,0.0594,0.0596,0.0587,0.0657,0.066,0.0665,0.0693,0.0702,0.0704,0.0705,0.0706,0.0689,0.0687,0,0,0,0,0,0,0.0493,0.0502,0.0557,0.0556,0.0531,0.0537,0.0544,0.0574,0.0621,0.0627,0.0586,0.0589,0.0655,0.0662,0.0669,0.067,0.0704,0.0707,0.0708,0.0691,0.0689,0.0687,0,0,0,0,0,0,0.0492,0.0499,0.0557,0.0522,0.0526,0.0537,0.0569,0.0573,0.0607,0.0612,0.0622,0.0619,0.0656,0.0665,0.0693,0.0674,0.0708,0.071,0.0693,0.069,0.0688,0.0667,0,0,0,0,0,0,0.049,0.05,0.053,0.0523,0.0528,0.056,0.0568,0.0572,0.0594,0.06,0.0643,0.0651,0.0658,0.0689,0.0695,0.0678,0.0712,0.0696,0.0692,0.0689,0.067,0.0664,0.0658,0,0,0,0,0,0.0488,0.05,0.0533,0.0539,0.0568,0.056,0.0561,0.0573,0.0595,0.061,0.0628,0.0651,0.0669,0.069,0.0698,0.0681,0.0698,0.0693,0.0689,0.0673,0.0665,0.0659,0,0,0,0,0,0,0.0465,0.0506,0.0541,0.0565,0.0578,0.0567,0.0579,0.0589,0.0616,0.0635,0.0648,0.0656,0.0666,0.0673,0.0696,0.0658,0.0678,0.0675,0.0663,0.0656,0.065,0.0647,0.0714,0,0,0,0,0,0.048,0.0519,0.0538,0.0561,0.0579,0.0593,0.0596,0.0607,0.0617,0.0633,0.0653,0.0659,0.0646,0.0656,0.0657,0.0656,0.0628,0.0639,0.0633,0.0628,0.0626,0.0541,0.0528,0.0672,0.0672,0.0673,0,0,0.0469,0.0502,0.052,0.0561,0.0584,0.0599,0.0602,0.0618,0.0627,0.0638,0.0671,0.0657,0.0642,0.0627,0.063,0.0639,0.0572,0.0623,0.0619,0.0619,0.0535,0.0521,0.0509,0.067,0.067,0.0671,0,0,0.0461,0.0516,0.0552,0.0572,0.0609,0.0612,0.0626,0.0641,0.0659,0.0673,0.0661,0.0632,0.0652,0.0607,0.059,0.0552,0.0547,0.0553,0.0525,0.0443,0.0431,0.042,0.0372,0.0357,0.0546,0.0546,0.0546,0,0.0457,0.0514,0.0551,0.0587,0.0607,0.0626,0.0656,0.0658,0.0672,0.0679,0.0689,0.0638,0.063,0.0565,0.0535,0.054,0.0507,0.056,0.0436,0.0425,0.0414,0.0367,0.0351,0.0545,0.0545,0.0545,0.0545,0,0.0475,0.0527,0.0545,0.0617,0.0636,0.0659,0.0675,0.0692,0.0711,0.0703,0.0673,0.0623,0.0588,0.0556,0.0538,0.0441,0.0448,0.0444,0.046,0.0398,0.0353,0.0336,0.0543,0.0543,0.0544,0.0544,0,0,0.0461,0.0548,0.0559,0.0612,0.0663,0.0679,0.0698,0.0715,0.0732,0.0702,0.0689,0.0603,0.057,0.0542,0.0489,0.0397,0.028,0.0384,0.0381,0.0348,0.0118,0.0163,0.015,0.0255,0.0252,0.0249,0.0122,0,0.0482,0.0545,0.0588,0.065,0.0692,0.0725,0.0747,0.0757,0.0759,0.0745,0.0654,0.0626,0.0566,0.0538,0.0429,0.0324,0.0234,0.0317,0.0174,0.0171,0.0226,0.013,0.0239,0.0109,0.0105,0.0103,0.0101,0,0.0502,0.0546,0.061,0.0702,0.0729,0.0758,0.0811,0.0837,0.0809,0.0809,0.0732,0.0676,0.0528,0.0495,0.0261,0.0319,0.0216,0.0126,0.0119,0.0157,0.0183,0.0179,0.007,0.0072,0.0075,0.0077,0.0079,0,0.0482,0.0571,0.0629,0.0657,0.0744,0.0783,0.0831,0.0848,0.0865,0.0837,0.0818,0.0674,0.0587,0.0418,0.0226,0.0242,-0.0023,-0.0013,-0.007,-0.0067,-0.0054,-0.0041,-0.0179,-0.0179,-0.0178,-0.0178,-0.0178,0,0.0495,0.0543,0.0626,0.0659,0.0732,0.0802,0.0859,0.0895,0.0898,0.089,0.0841,0.0756,0.0557,0.0386,0.0226,0.002,-0.0024,-0.0096,-0.0113,-0.0058,-0.0044,-0.0065,-0.005,-0.0183,-0.0182,-0.0181,-0.018,0,0.0473,0.0528,0.0596,0.0692,0.0728,0.0783,0.0872,0.09,0.0928,0.09,0.0884,0.0778,0.059,0.0398,0.0128,0.0029,-0.0167,-0.0222,-0.014,-0.0146,-0.0149,-0.0134,-0.0292,-0.0292,-0.0292,-0.0292,-0.0291,0,0.0468,0.05,0.0604,0.0644,0.0695,0.0773,0.0828,0.0898,0.0911,0.0883,0.085,0.0706,0.0608,0.0274,0.0091,-0.0164,-0.0197,-0.027,-0.0231,-0.0168,-0.0169,-0.0154,-0.0139,-0.0291,-0.0291,-0.0291,-0.0291,0,0.0451,0.049,0.0545,0.0616,0.0684,0.0758,0.0829,0.0826,0.0886,0.0887,0.0796,0.0664,0.0475,0.0261,0.0086,-0.0113,-0.0209,-0.0269,-0.027,-0.0234,-0.0169,-0.0166,-0.0152,-0.0291,-0.0291,-0.0291,-0.0291,0,0.0436,0.0456,0.0524,0.0592,0.0668,0.0732,0.0773,0.0792,0.0815,0.0799,0.0739,0.059,0.0496,0.0283,0.0086,-0.0059,-0.0087,-0.0125,-0.0134,-0.0136,-0.004,0.0068,-0.0019,0,0,0,0,0,0.0422,0.0445,0.0496,0.0573,0.0643,0.0699,0.0775,0.0808,0.0827,0.0769,0.0767,0.0601,0.0378,0.0277,0.0136,0.0086,-0.0118,-0.0082,-0.0167,-0.0288,-0.0289,-0.0197,0,0,0,0,0,0,0.0414,0.0455,0.048,0.0543,0.0591,0.0677,0.0731,0.0753,0.0727,0.0722,0.0601,0.057,0.0345,0.0444,0.0127,0.0086,0.0017,-0.018,-0.0183,-0.0288,-0.0288,-0.0289,-0.0195,0,0,0,0,0]}]]